Location: Passau
(48.5830°N, 13.4830°E)
Time: 02:43:44
(UTC+01:00)

NOAA 19 - Pass Details

Date: 01 December 2021
Orbit: 841 x 860 km, 99.2° (Epoch: 17 January)

Event Time Altitude Azimuth Distance (km) Brightness Sun altitude
Rises 20:10:28 0° 211° (SSW) 3,385 8.6 -38.4°
Reaches altitude 10° 20:13:42 10° 232° (SW) 2,457 8.0 -38.9°
Maximum altitude 20:17:09 17° 271° (W) 2,018 7.7 -39.5°
Drops below altitude 10° 20:20:36 10° 311° (NW) 2,472 8.2 -40.1°
Sets 20:23:54 0° 331° (NNW) 3,415 8.8 -40.6°
